| time (UTC) | temp F | wind direction | speed knots | gust knots | rain 1hr in | rain 24hr in | rain mn in | humidity % | barometer mb |
| 20260503072632 | 77 | 336 | 1.7 | 4.3 | 0.00 | 0.00 | 0.00 | 80 | 1013.2 |
| 20260503072128 | 77 | 293 | 2.6 | 4.3 | 0.00 | 0.00 | 0.00 | 79 | 1013.5 |
| 20260503071707 | 77 | 294 | 0.9 | 4.3 | 0.00 | 0.00 | 0.00 | 79 | 1013.8 |
| 20260503071144 | 77 | 299 | 2.6 | 8.7 | 0.00 | 0.00 | 0.00 | 79 | 1013.7 |
| 20260503070721 | 77 | 264 | 4.3 | 8.7 | 0.00 | 0.00 | 0.00 | 79 | 1013.5 |
| 20260503070136 | 77 | 311 | 3.5 | 5.2 | 0.00 | 0.00 | 0.00 | 80 | 1013.7 |
| 20260503060131 | 78 | 249 | 0.9 | 4.3 | 0.00 | 0.00 | 0.00 | 81 | 1013.0 |
| 20260503054714 | 78 | 227 | 0.9 | 4.3 | 0.00 | 0.00 | 0.00 | 80 | 1013.2 |
| 20260503054632 | 78 | 227 | 0.9 | 4.3 | 0.00 | 0.00 | 0.00 | 80 | 1013.2 |
| 20260503054229 | 78 | 225 | 0.9 | 4.3 | 0.00 | 0.00 | 0.00 | 80 | 1013.1 |
| 20260503053645 | 78 | 217 | 0.9 | 3.5 | 0.00 | 0.00 | 0.00 | 79 | 1013.2 |
| 20260503053140 | 78 | 222 | 1.7 | 4.3 | 0.00 | 0.00 | 0.00 | 79 | 1013.4 |
| 20260503052657 | 78 | 250 | 0.9 | 7.0 | 0.00 | 0.00 | 0.00 | 79 | 1013.6 |
| 20260503052235 | 78 | 242 | 0.9 | 7.0 | 0.00 | 0.00 | 0.00 | 79 | 1013.7 |
| 20260503051729 | 78 | 240 | 2.6 | 5.2 | 0.00 | 0.00 | 0.00 | 79 | 1013.8 |
| 20260503051647 | 78 | 240 | 2.6 | 5.2 | 0.00 | 0.00 | 0.00 | 79 | 1013.8 |
| 20260503051143 | 78 | 248 | 0.9 | 6.1 | 0.00 | 0.00 | 0.00 | 79 | 1013.8 |
| 20260503050701 | 79 | 245 | 1.7 | 7.0 | 0.00 | 0.00 | 0.00 | 79 | 1014.0 |
| 20260503050139 | 79 | 244 | 2.6 | 7.0 | 0.00 | 0.00 | 0.00 | 78 | 1014.1 |
| 20260503045647 | 79 | 242 | 1.7 | 4.3 | 0.00 | 0.00 | 0.00 | 78 | 1014.0 |
| 20260503045206 | 79 | 232 | 0.9 | 4.3 | 0.00 | 0.00 | 0.00 | 78 | 1014.0 |
| 20260503044701 | 79 | 249 | 2.6 | 7.0 | 0.00 | 0.00 | 0.00 | 78 | 1014.2 |
| 20260503044158 | 79 | 260 | 2.6 | 7.0 | 0.00 | 0.00 | 0.00 | 77 | 1014.3 |
| 20260503043636 | 79 | 246 | 2.6 | 5.2 | 0.00 | 0.00 | 0.00 | 77 | 1014.2 |
| 20260503043249 | 79 | 277 | 1.7 | 5.2 | 0.00 | 0.00 | 0.00 | 77 | 1014.4 |
| 20260503042642 | 79 | 263 | 2.6 | 6.1 | 0.00 | 0.00 | 0.00 | 77 | 1014.2 |
| 20260503042219 | 79 | 254 | 1.7 | 6.1 | 0.00 | 0.00 | 0.00 | 77 | 1014.1 |
| 20260503041655 | 80 | 257 | 0.9 | 6.1 | 0.00 | 0.00 | 0.00 | 77 | 1014.1 |
| 20260503041151 | 80 | 250 | 1.7 | 3.5 | 0.00 | 0.00 | 0.00 | 77 | 1014.2 |
| 20260503040728 | 80 | 250 | 1.7 | 3.5 | 0.00 | 0.00 | 0.00 | 77 | 1014.1 |
| 20260503040646 | 80 | 250 | 1.7 | 3.5 | 0.00 | 0.00 | 0.00 | 77 | 1014.1 |
| 20260503040245 | 80 | 250 | 1.7 | 3.5 | 0.00 | 0.00 | 0.00 | 77 | 1014.3 |
| 20260503035631 | 80 | 250 | 0.9 | 5.2 | 0.00 | 0.00 | 0.00 | 77 | 1014.3 |
| 20260503035230 | 80 | 250 | 2.6 | 5.2 | 0.00 | 0.00 | 0.00 | 77 | 1014.5 |
| 20260503035147 | 80 | 250 | 2.6 | 5.2 | 0.00 | 0.00 | 0.00 | 77 | 1014.5 |
| 20260503034724 | 80 | 269 | 0.0 | 1.7 | 0.00 | 0.00 | 0.00 | 77 | 1014.3 |
| 20260503034220 | 80 | 269 | 0.0 | 2.6 | 0.00 | 0.00 | 0.00 | 76 | 1014.0 |
| 20260503033715 | 80 | 269 | 0.0 | 2.6 | 0.00 | 0.00 | 0.00 | 76 | 1013.9 |
| 20260503033129 | 80 | 269 | 0.0 | 1.7 | 0.00 | 0.00 | 0.00 | 76 | 1013.8 |
| 20260503032747 | 80 | 269 | 0.9 | 1.7 | 0.00 | 0.00 | 0.00 | 76 | 1014.0 |
| 20260503032218 | 80 | 269 | 0.9 | 3.5 | 0.00 | 0.00 | 0.00 | 76 | 1013.9 |
| 20260503031638 | 80 | 269 | 0.0 | 3.5 | 0.00 | 0.00 | 0.00 | 76 | 1013.9 |
| 20260503031137 | 80 | 269 | 0.0 | 3.5 | 0.00 | 0.00 | 0.00 | 76 | 1013.8 |
| 20260503030715 | 80 | 269 | 0.9 | 3.5 | 0.00 | 0.00 | 0.00 | 76 | 1013.9 |
| 20260503030633 | 80 | 269 | 0.9 | 3.5 | 0.00 | 0.00 | 0.00 | 76 | 1013.9 |
| 20260503030132 | 80 | 269 | 2.6 | 3.5 | 0.00 | 0.00 | 0.00 | 75 | 1013.9 |
| 20260503025642 | 80 | 270 | 0.0 | 2.6 | 0.00 | 0.00 | 0.00 | 75 | 1013.8 |
| 20260503025139 | 81 | 268 | 0.9 | 2.6 | 0.00 | 0.00 | 0.00 | 75 | 1013.9 |
| 20260503024636 | 81 | 269 | 0.9 | 5.2 | 0.00 | 0.00 | 0.00 | 74 | 1013.9 |
| 20260503024133 | 81 | 290 | 1.7 | 4.3 | 0.00 | 0.00 | 0.00 | 74 | 1013.8 |
| 20260503023710 | 81 | 246 | 1.7 | 6.1 | 0.00 | 0.00 | 0.00 | 73 | 1013.9 |
| 20260503023628 | 81 | 246 | 1.7 | 6.1 | 0.00 | 0.00 | 0.00 | 73 | 1013.9 |
| 20260503023205 | 81 | 261 | 2.6 | 6.1 | 0.00 | 0.00 | 0.00 | 73 | 1013.9 |
| 20260503022721 | 81 | 270 | 2.6 | 7.0 | 0.00 | 0.00 | 0.00 | 72 | 1014.0 |
| 20260503022135 | 82 | 248 | 2.6 | 7.0 | 0.00 | 0.00 | 0.00 | 72 | 1014.0 |
| 20260503021632 | 82 | 273 | 2.6 | 7.0 | 0.00 | 0.00 | 0.00 | 71 | 1014.0 |
| 20260503021131 | 83 | 288 | 1.7 | 10.4 | 0.00 | 0.00 | 0.00 | 70 | 1013.8 |
| 20260503020628 | 83 | 262 | 3.5 | 10.4 | 0.00 | 0.00 | 0.00 | 69 | 1013.7 |
| 20260503020227 | 83 | 262 | 3.5 | 12.2 | 0.00 | 0.00 | 0.00 | 69 | 1013.7 |
| 20260503015655 | 84 | 248 | 3.5 | 12.2 | 0.00 | 0.00 | 0.00 | 68 | 1013.7 |
| 20260503015211 | 84 | 265 | 5.2 | 9.6 | 0.00 | 0.00 | 0.00 | 68 | 1013.6 |
| 20260503014724 | 84 | 229 | 3.5 | 11.3 | 0.00 | 0.00 | 0.00 | 67 | 1013.5 |
| 20260503014221 | 84 | 262 | 5.2 | 11.3 | 0.00 | 0.00 | 0.00 | 66 | 1013.4 |
| 20260503013735 | 84 | 249 | 5.2 | 9.6 | 0.00 | 0.00 | 0.00 | 66 | 1013.4 |
| 20260503013128 | 85 | 258 | 3.5 | 9.6 | 0.00 | 0.00 | 0.00 | 65 | 1013.2 |
| 20260503012705 | 85 | 269 | 3.5 | 9.6 | 0.00 | 0.00 | 0.00 | 64 | 1013.3 |
| 20260503012221 | 85 | 293 | 3.5 | 8.7 | 0.00 | 0.00 | 0.00 | 64 | 1013.2 |
| 20260503011715 | 85 | 258 | 3.5 | 9.6 | 0.00 | 0.00 | 0.00 | 63 | 1013.1 |
| 20260503011232 | 85 | 253 | 7.0 | 9.6 | 0.00 | 0.00 | 0.00 | 62 | 1013.0 |
| 20260503010707 | 86 | 263 | 3.5 | 10.4 | 0.00 | 0.00 | 0.00 | 62 | 1012.9 |
| 20260503010204 | 86 | 261 | 4.3 | 13.9 | 0.00 | 0.00 | 0.00 | 61 | 1012.9 |
| 20260503005711 | 86 | 274 | 5.2 | 10.4 | 0.00 | 0.00 | 0.00 | 60 | 1012.8 |
| 20260503005247 | 86 | 296 | 3.5 | 9.6 | 0.00 | 0.00 | 0.00 | 59 | 1012.6 |
| 20260503004718 | 86 | 259 | 3.5 | 9.6 | 0.00 | 0.00 | 0.00 | 59 | 1012.6 |
| 20260503004213 | 87 | 257 | 2.6 | 10.4 | 0.00 | 0.00 | 0.00 | 58 | 1012.6 |
| 20260503003750 | 87 | 268 | 5.2 | 11.3 | 0.00 | 0.00 | 0.00 | 57 | 1012.5 |
| 20260503003143 | 87 | 266 | 5.2 | 12.2 | 0.00 | 0.00 | 0.00 | 56 | 1012.6 |
| 20260503002740 | 87 | 246 | 5.2 | 11.3 | 0.00 | 0.00 | 0.00 | 55 | 1012.5 |
| 20260503002636 | 87 | 246 | 5.2 | 11.3 | 0.00 | 0.00 | 0.00 | 55 | 1012.5 |
| 20260503002234 | 88 | 263 | 5.2 | 11.3 | 0.00 | 0.00 | 0.00 | 54 | 1012.4 |
| 20260503002131 | 88 | 263 | 5.2 | 11.3 | 0.00 | 0.00 | 0.00 | 54 | 1012.4 |
| 20260503001646 | 88 | 256 | 6.1 | 11.3 | 0.00 | 0.00 | 0.00 | 54 | 1012.3 |
| 20260503001142 | 88 | 244 | 2.6 | 10.4 | 0.00 | 0.00 | 0.00 | 53 | 1012.4 |
| 20260503000638 | 89 | 261 | 3.5 | 10.4 | 0.00 | 0.00 | 0.00 | 52 | 1012.1 |
| 20260503000156 | 89 | 259 | 4.3 | 13.9 | 0.00 | 0.00 | 0.00 | 52 | 1012.1 |
| 20260502235743 | 89 | 250 | 4.3 | 13.9 | 0.00 | 0.00 | 0.00 | 51 | 1012.0 |
| 20260502235639 | 89 | 250 | 4.3 | 13.9 | 0.00 | 0.00 | 0.00 | 51 | 1012.0 |
| 20260502235137 | 89 | 243 | 4.3 | 10.4 | 0.00 | 0.00 | 0.00 | 50 | 1012.1 |
| 20260502234633 | 89 | 259 | 3.5 | 11.3 | 0.00 | 0.00 | 0.00 | 50 | 1011.9 |
| 20260502234130 | 90 | 250 | 4.3 | 11.3 | 0.00 | 0.00 | 0.00 | 49 | 1011.9 |
| 20260502233728 | 90 | 285 | 1.7 | 7.8 | 0.00 | 0.00 | 0.00 | 50 | 1011.7 |
| 20260502233145 | 90 | 263 | 4.3 | 7.8 | 0.00 | 0.00 | 0.00 | 49 | 1011.7 |
| 20260502232743 | 90 | 266 | 2.6 | 7.8 | 0.00 | 0.00 | 0.00 | 49 | 1011.7 |
| 20260502232700 | 90 | 266 | 2.6 | 7.8 | 0.00 | 0.00 | 0.00 | 49 | 1011.7 |
| 20260502232138 | 90 | 267 | 2.6 | 10.4 | 0.00 | 0.00 | 0.00 | 48 | 1011.5 |
| 20260502231735 | 90 | 248 | 4.3 | 10.4 | 0.00 | 0.00 | 0.00 | 48 | 1011.4 |
| 20260502231653 | 90 | 248 | 4.3 | 10.4 | 0.00 | 0.00 | 0.00 | 48 | 1011.4 |
| 20260502231150 | 90 | 274 | 4.3 | 11.3 | 0.00 | 0.00 | 0.00 | 47 | 1011.4 |
| 20260502230646 | 91 | 254 | 4.3 | 9.6 | 0.00 | 0.00 | 0.00 | 48 | 1011.3 |
| 20260502230239 | 91 | 246 | 4.3 | 8.7 | 0.00 | 0.00 | 0.00 | 48 | 1011.3 |
| 20260502230157 | 91 | 246 | 4.3 | 8.7 | 0.00 | 0.00 | 0.00 | 48 | 1011.3 |
| 20260502225641 | 91 | 267 | 2.6 | 8.7 | 0.00 | 0.00 | 0.00 | 48 | 1011.0 |
| 20260502225154 | 91 | 236 | 3.5 | 8.7 | 0.00 | 0.00 | 0.00 | 47 | 1011.0 |
| 20260502224749 | 91 | 276 | 3.5 | 7.8 | 0.00 | 0.00 | 0.00 | 48 | 1011.1 |
| 20260502224203 | 91 | 269 | 2.6 | 9.6 | 0.00 | 0.00 | 0.00 | 48 | 1011.0 |
| 20260502223639 | 91 | 248 | 3.5 | 9.6 | 0.00 | 0.00 | 0.00 | 48 | 1010.9 |
| 20260502223136 | 91 | 262 | 3.5 | 13.9 | 0.00 | 0.00 | 0.00 | 47 | 1010.9 |
| 20260502222631 | 91 | 263 | 6.1 | 13.9 | 0.00 | 0.00 | 0.00 | 47 | 1010.9 |
| 20260502222227 | 91 | 230 | 6.1 | 10.4 | 0.00 | 0.00 | 0.00 | 47 | 1010.9 |
| 20260502222145 | 91 | 230 | 6.1 | 10.4 | 0.00 | 0.00 | 0.00 | 47 | 1010.9 |
| 20260502221642 | 92 | 253 | 5.2 | 10.4 | 0.00 | 0.00 | 0.00 | 46 | 1010.8 |
| 20260502221220 | 92 | 253 | 5.2 | 12.2 | 0.00 | 0.00 | 0.00 | 47 | 1010.9 |
| 20260502220635 | 92 | 259 | 4.3 | 12.2 | 0.00 | 0.00 | 0.00 | 46 | 1010.8 |
| 20260502220212 | 93 | 257 | 7.0 | 10.4 | 0.00 | 0.00 | 0.00 | 45 | 1010.8 |
| 20260502215719 | 92 | 272 | 6.1 | 13.0 | 0.00 | 0.00 | 0.00 | 45 | 1010.8 |
| 20260502215135 | 93 | 278 | 7.0 | 12.2 | 0.00 | 0.00 | 0.00 | 45 | 1010.7 |
| 20260502214711 | 93 | 246 | 5.2 | 16.5 | 0.00 | 0.00 | 0.00 | 45 | 1010.6 |
| 20260502214145 | 93 | 259 | 7.0 | 16.5 | 0.00 | 0.00 | 0.00 | 45 | 1010.7 |
| 20260502213701 | 93 | 251 | 6.1 | 13.9 | 0.00 | 0.00 | 0.00 | 45 | 1010.6 |
| 20260502213138 | 93 | 255 | 4.3 | 13.9 | 0.00 | 0.00 | 0.00 | 45 | 1010.7 |
| 20260502212637 | 93 | 259 | 7.8 | 13.9 | 0.00 | 0.00 | 0.00 | 45 | 1010.7 |
| 20260502212153 | 93 | 298 | 6.1 | 11.3 | 0.00 | 0.00 | 0.00 | 45 | 1010.7 |
| 20260502211629 | 93 | 254 | 5.2 | 14.8 | 0.00 | 0.00 | 0.00 | 45 | 1010.5 |
| 20260502211145 | 93 | 280 | 9.6 | 14.8 | 0.00 | 0.00 | 0.00 | 43 | 1010.8 |
| 20260502210721 | 93 | 246 | 5.2 | 11.3 | 0.00 | 0.00 | 0.00 | 44 | 1010.6 |
| 20260502210135 | 93 | 265 | 5.2 | 17.4 | 0.00 | 0.00 | 0.00 | 44 | 1010.4 |
| 20260502205643 | 93 | 218 | 8.7 | 17.4 | 0.00 | 0.00 | 0.00 | 43 | 1010.5 |
| 20260502205239 | 93 | 238 | 8.7 | 14.8 | 0.00 | 0.00 | 0.00 | 45 | 1010.4 |
| 20260502205157 | 93 | 238 | 8.7 | 14.8 | 0.00 | 0.00 | 0.00 | 45 | 1010.4 |
| 20260502204732 | 93 | 259 | 7.0 | 17.4 | 0.00 | 0.00 | 0.00 | 45 | 1010.5 |
| 20260502204222 | 93 | 314 | 9.6 | 15.6 | 0.00 | 0.00 | 0.00 | 43 | 1010.6 |
| 20260502203657 | 94 | 249 | 7.8 | 12.2 | 0.00 | 0.00 | 0.00 | 45 | 1010.4 |
| 20260502203154 | 93 | 242 | 7.0 | 15.6 | 0.00 | 0.00 | 0.00 | 46 | 1010.6 |
| 20260502202731 | 94 | 292 | 7.0 | 15.6 | 0.00 | 0.00 | 0.00 | 45 | 1010.6 |
| 20260502202649 | 94 | 292 | 7.0 | 15.6 | 0.00 | 0.00 | 0.00 | 45 | 1010.6 |
| 20260502202226 | 93 | 261 | 7.0 | 15.6 | 0.00 | 0.00 | 0.00 | 45 | 1010.6 |
| 20260502201642 | 94 | 223 | 7.8 | 13.9 | 0.00 | 0.00 | 0.00 | 45 | 1010.5 |
| 20260502201157 | 94 | 255 | 6.1 | 13.9 | 0.00 | 0.00 | 0.00 | 47 | 1010.6 |
| 20260502200632 | 93 | 241 | 7.0 | 18.2 | 0.00 | 0.00 | 0.00 | 47 | 1010.7 |
| 20260502200209 | 93 | 259 | 7.8 | 18.2 | 0.00 | 0.00 | 0.00 | 46 | 1010.7 |
| 20260502195735 | 93 | 302 | 5.2 | 15.6 | 0.00 | 0.00 | 0.00 | 47 | 1010.6 |
| 20260502195631 | 93 | 302 | 5.2 | 15.6 | 0.00 | 0.00 | 0.00 | 47 | 1010.6 |
| 20260502195128 | 93 | 263 | 5.2 | 18.2 | 0.00 | 0.00 | 0.00 | 47 | 1010.8 |
| 20260502194705 | 93 | 261 | 7.0 | 15.6 | 0.00 | 0.00 | 0.00 | 48 | 1010.9 |
| 20260502194222 | 93 | 269 | 8.7 | 15.6 | 0.00 | 0.00 | 0.00 | 47 | 1010.9 |
| 20260502193655 | 93 | 229 | 9.6 | 15.6 | 0.00 | 0.00 | 0.00 | 48 | 1010.8 |
| 20260502193151 | 93 | 250 | 8.7 | 20.9 | 0.00 | 0.00 | 0.00 | 49 | 1010.9 |
| 20260502192708 | 93 | 219 | 10.4 | 20.9 | 0.00 | 0.00 | 0.00 | 48 | 1010.9 |
| 20260502192204 | 93 | 240 | 8.7 | 16.5 | 0.00 | 0.00 | 0.00 | 47 | 1010.8 |
| 20260502191641 | 93 | 242 | 7.0 | 15.6 | 0.00 | 0.00 | 0.00 | 47 | 1010.9 |
| 20260502191140 | 93 | 242 | 8.7 | 18.2 | 0.00 | 0.00 | 0.00 | 48 | 1010.9 |
| 20260502190737 | 93 | 200 | 10.4 | 18.2 | 0.00 | 0.00 | 0.00 | 48 | 1010.8 |
| 20260502190133 | 93 | 247 | 7.8 | 16.5 | 0.00 | 0.00 | 0.00 | 50 | 1010.9 |
| 20260502185722 | 93 | 262 | 7.0 | 16.5 | 0.00 | 0.00 | 0.00 | 52 | 1010.8 |
| 20260502185640 | 93 | 262 | 7.0 | 16.5 | 0.00 | 0.00 | 0.00 | 52 | 1010.8 |
| 20260502185137 | 93 | 272 | 7.8 | 16.5 | 0.00 | 0.00 | 0.00 | 51 | 1010.9 |
| 20260502184734 | 93 | 205 | 7.8 | 16.5 | 0.00 | 0.00 | 0.00 | 52 | 1011.0 |
| 20260502184245 | 93 | 268 | 7.0 | 14.8 | 0.00 | 0.00 | 0.00 | 51 | 1011.0 |
| 20260502183638 | 93 | 238 | 8.7 | 15.6 | 0.00 | 0.00 | 0.00 | 51 | 1011.1 |
| 20260502183135 | 93 | 250 | 7.8 | 15.6 | 0.00 | 0.00 | 0.00 | 53 | 1011.0 |
| 20260502182638 | 92 | 253 | 6.1 | 13.0 | 0.00 | 0.00 | 0.00 | 55 | 1011.1 |
| 20260502182232 | 91 | 260 | 4.3 | 10.4 | 0.00 | 0.00 | 0.00 | 59 | 1011.1 |
| 20260502182129 | 91 | 260 | 4.3 | 10.4 | 0.00 | 0.00 | 0.00 | 59 | 1011.1 |
| 20260502181745 | 90 | 234 | 5.2 | 9.6 | 0.00 | 0.00 | 0.00 | 64 | 1011.3 |
| 20260502181239 | 89 | 161 | 1.7 | 9.6 | 0.00 | 0.00 | 0.00 | 73 | 1011.3 |
| 20260502180731 | 88 | 162 | 3.5 | 11.3 | 0.00 | 0.00 | 0.00 | 69 | 1011.4 |
| 20260502180224 | 88 | 117 | 7.0 | 11.3 | 0.00 | 0.00 | 0.00 | 76 | 1011.4 |
| 20260502170220 | 87 | 134 | 6.1 | 13.0 | 0.00 | 0.00 | 0.00 | 75 | 1012.0 |
| 20260502164206 | 86 | 162 | 7.0 | 10.4 | 0.00 | 0.00 | 0.00 | 77 | 1012.0 |
| 20260502163704 | 86 | 153 | 5.2 | 12.2 | 0.00 | 0.00 | 0.00 | 78 | 1011.9 |
| 20260502163140 | 86 | 161 | 6.1 | 13.9 | 0.00 | 0.00 | 0.00 | 76 | 1012.1 |
| 20260502162637 | 87 | 163 | 7.0 | 13.0 | 0.00 | 0.00 | 0.00 | 76 | 1012.1 |
| 20260502162135 | 87 | 134 | 4.3 | 13.0 | 0.00 | 0.00 | 0.00 | 77 | 1012.2 |
| 20260502161653 | 87 | 128 | 5.2 | 13.9 | 0.00 | 0.00 | 0.00 | 77 | 1012.1 |
| 20260502161228 | 87 | 108 | 7.0 | 13.9 | 0.00 | 0.00 | 0.00 | 77 | 1012.2 |
| 20260502161146 | 87 | 108 | 7.0 | 13.9 | 0.00 | 0.00 | 0.00 | 77 | 1012.2 |
| 20260502160702 | 87 | 146 | 7.8 | 14.8 | 0.00 | 0.00 | 0.00 | 76 | 1012.2 |
| 20260502160219 | 87 | 129 | 7.8 | 13.9 | 0.00 | 0.00 | 0.00 | 76 | 1012.3 |
| 20260502152144 | 88 | 221 | 1.7 | 8.7 | 0.00 | 0.00 | 0.00 | 73 | 1012.6 |
| 20260502151719 | 87 | 196 | 2.6 | 8.7 | 0.00 | 0.00 | 0.00 | 67 | 1012.5 |
| 20260502151213 | 87 | 126 | 2.6 | 11.3 | 0.00 | 0.00 | 0.00 | 73 | 1012.6 |
| 20260502150707 | 87 | 182 | 5.2 | 11.3 | 0.00 | 0.00 | 0.00 | 68 | 1012.5 |
| 20260502150143 | 87 | 182 | 5.2 | 9.6 | 0.00 | 0.00 | 0.00 | 75 | 1012.5 |
| 20260502130643 | 82 | 200 | 2.6 | 6.1 | 0.00 | 0.00 | 0.00 | 83 | 1012.2 |
| 20260502130142 | 82 | 148 | 2.6 | 6.1 | 0.00 | 0.00 | 0.00 | 83 | 1012.3 |
| 20260502123657 | 80 | 136 | 2.6 | 5.2 | 0.00 | 0.00 | 0.00 | 86 | 1012.3 |
| 20260502123131 | 80 | 169 | 2.6 | 5.2 | 0.00 | 0.00 | 0.00 | 86 | 1012.3 |
| 20260502122707 | 79 | 202 | 0.9 | 5.2 | 0.00 | 0.00 | 0.00 | 87 | 1012.3 |
| 20260502122203 | 79 | 157 | 1.7 | 5.2 | 0.00 | 0.00 | 0.00 | 87 | 1012.3 |
| 20260502121639 | 78 | 169 | 1.7 | 4.3 | 0.00 | 0.00 | 0.00 | 88 | 1012.3 |
| 20260502121136 | 78 | 167 | 2.6 | 4.3 | 0.00 | 0.00 | 0.00 | 88 | 1012.2 |
| 20260502120734 | 77 | 246 | 0.9 | 3.5 | 0.00 | 0.00 | 0.00 | 89 | 1012.3 |
| 20260502120651 | 77 | 246 | 0.9 | 3.5 | 0.00 | 0.00 | 0.00 | 89 | 1012.3 |
| 20260502120129 | 77 | 252 | 0.0 | 0.0 | 0.00 | 0.00 | 0.00 | 89 | 1012.4 |
| 20260502115638 | 76 | 252 | 0.0 | 0.0 | 0.00 | 0.00 | 0.00 | 90 | 1012.4 |
| 20260502115156 | 76 | 252 | 0.0 | 0.0 | 0.00 | 0.00 | 0.00 | 90 | 1012.4 |
| 20260502114633 | 75 | 252 | 0.0 | 0.0 | 0.00 | 0.00 | 0.00 | 90 | 1012.5 |
| 20260502114131 | 75 | 252 | 0.0 | 0.0 | 0.00 | 0.00 | 0.00 | 90 | 1012.4 |
| 20260502113649 | 75 | 252 | 0.0 | 0.0 | 0.00 | 0.00 | 0.00 | 91 | 1012.3 |
| 20260502113206 | 74 | 252 | 0.0 | 0.0 | 0.00 | 0.00 | 0.00 | 91 | 1012.4 |
| 20260502112643 | 74 | 252 | 0.0 | 0.0 | 0.00 | 0.00 | 0.00 | 91 | 1012.5 |
| 20260502112221 | 74 | 252 | 0.0 | 0.0 | 0.00 | 0.00 | 0.00 | 91 | 1012.4 |
| 20260502111657 | 74 | 252 | 0.0 | 0.0 | 0.00 | 0.00 | 0.00 | 91 | 1012.5 |
| 20260502111134 | 74 | 252 | 0.0 | 0.0 | 0.00 | 0.00 | 0.00 | 91 | 1012.5 |
| 20260502110651 | 74 | 252 | 0.0 | 0.0 | 0.00 | 0.00 | 0.00 | 91 | 1012.5 |
| 20260502110249 | 74 | 252 | 0.0 | 0.0 | 0.00 | 0.00 | 0.00 | 91 | 1012.5 |
| 20260502110146 | 74 | 252 | 0.0 | 0.0 | 0.00 | 0.00 | 0.00 | 91 | 1012.5 |
| 20260502105636 | 73 | 252 | 0.0 | 0.0 | 0.00 | 0.00 | 0.00 | 91 | 1012.5 |
| 20260502105154 | 73 | 252 | 0.0 | 0.0 | 0.00 | 0.00 | 0.00 | 91 | 1012.5 |
| 20260502104631 | 73 | 252 | 0.0 | 0.0 | 0.00 | 0.00 | 0.00 | 91 | 1012.4 |
| 20260502104129 | 73 | 252 | 0.0 | 0.0 | 0.00 | 0.00 | 0.00 | 91 | 1012.2 |
| 20260502103726 | 73 | 252 | 0.0 | 0.0 | 0.00 | 0.00 | 0.00 | 91 | 1012.1 |
| 20260502103201 | 73 | 252 | 0.0 | 0.0 | 0.00 | 0.00 | 0.00 | 91 | 1012.1 |
| 20260502102638 | 73 | 252 | 0.0 | 0.0 | 0.00 | 0.00 | 0.00 | 91 | 1012.2 |
| 20260502102135 | 73 | 252 | 0.0 | 0.0 | 0.00 | 0.00 | 0.00 | 91 | 1012.2 |
| 20260502101634 | 73 | 252 | 0.0 | 0.0 | 0.00 | 0.00 | 0.00 | 91 | 1012.3 |
| 20260502101152 | 73 | 252 | 0.0 | 0.0 | 0.00 | 0.00 | 0.00 | 91 | 1012.2 |
| 20260502100628 | 73 | 252 | 0.0 | 0.0 | 0.00 | 0.00 | 0.00 | 91 | 1012.2 |
| 20260502100207 | 73 | 252 | 0.0 | 0.0 | 0.00 | 0.00 | 0.00 | 91 | 1012.3 |
| 20260502091200 | 74 | 252 | 0.0 | 0.0 | 0.00 | 0.00 | 0.00 | 89 | 1012.4 |
| 20260502090635 | 74 | 252 | 0.0 | 0.0 | 0.00 | 0.00 | 0.00 | 89 | 1012.3 |
| 20260502090154 | 74 | 252 | 0.0 | 0.0 | 0.00 | 0.00 | 0.00 | 89 | 1012.3 |